www.pogodaiklimat.ru

Погода и климат >> Архив погоды >> Канада >> Baker Lake Climate


ПОГОДА в Baker Lake Climate

  • Прогноз погоды в Baker Lake Climate
  • Монитор погоды в Baker Lake Climate
  • Климат города

АРХИВ ПОГОДЫ в Baker Lake Climate

Время (UTC), дата Ветер
(напр.,м/с)
 
Видим.   Явления Облачность Т
(С)
Тd
(С)
f
(%)
Тe
(С)
Тes
(С)
Комфортность P
(гПа)
Po
(гПа)
Тmin
(С)
Tmax
(С)
R
(мм)
R24
(мм)
S
(см)
09 14.10 СЗ 9 н/о н/о -9.5 -12.6 78 -20 -20 1009.7 1003.1
12 14.10 СЗ 9 н/о н/о -11.5 -15.1 75 -22 -22 1010.8 1004.1 -11.6 -2.4
15 14.10 СЗ 9 н/о н/о -10.7 -14.3 75 -21 -21 1011.0 1004.3
18 14.10 СЗ 9 н/о н/о -10.3 -14.5 71 -21 -21 1011.1 1004.4 -11.9 -8.8
21 14.10 СЗ 7 н/о н/о -9.8 -14.1 71 -19 -19 1011.8 1005.1
00 15.10 СЗ 6 н/о н/о -10.5 -14.0 75 -19 -19 1012.3 1005.6 -11.9 -9.2
03 15.10 СЗ 6 н/о н/о -11.3 -14.4 78 -20 -20 1012.4 1005.7
06 15.10 СЗ 5 н/о н/о -14.1 -16.8 80 -22 -22 1012.5 1005.8 -14.1 -8.8 11
09 15.10 С 1 н/о н/о -15.2 -17.3 84 -18 -18 1011.9 1005.2
12 15.10 С 1 н/о н/о -12.5 -14.8 83 -15 -15 1011.2 1004.5 -15.5 -8.8
15 15.10 В 4 н/о н/о -11.3 -14.4 78 -18 -18 1009.9 1003.2
18 15.10 ЮВ 5 н/о {осадки} н/о -8.8 -11.3 82 -17 -17 1008.3 1001.6 -15.5 -8.6 0.2
21 15.10 ЮВ 5 н/о н/о -8.0 -10.7 81 -15 -15 1007.4 1000.7
00 16.10 В 5 н/о н/о -7.4 -9.6 84 -15 -15 1006.8 1000.2 -15.5 -7.1
03 16.10 СВ 5 н/о н/о -8.8 -11.0 84 -16 -16 1006.5 999.9
06 16.10 СВ 6 н/о н/о -12.0 -14.4 82 -21 -21 1006.7 1000.1 -15.5 -7.1
09 16.10 СВ 6 н/о н/о -14.6 -16.6 85 -24 -24 1007.1 1000.4
12 16.10 СВ 5 н/о н/о -14.8 -17.0 83 -23 -23 1007.7 1001.0 -15.1 -7.1
15 16.10 н/о н/о -14.0 -16.3 83 1008.7 1002.0
18 16.10 С 3 н/о н/о -9.9 -11.7 87 -16 -16 1009.0 1002.4 -15.6 -9.7
21 16.10 н/о н/о -8.3 -10.5 84 1009.1 1002.4
00 17.10 С 6 н/о н/о -12.0 -13.8 86 -21 -21 1010.2 1003.5 -15.6 -7.5
03 17.10 С 3 н/о н/о -10.7 -12.3 88 -17 -17 1011.1 1004.4
06 17.10 СВ 4 н/о н/о -9.7 -11.3 88 -16 -16 1010.7 1004.0 -15.6 -7.5
09 17.10 СВ 2 н/о н/о -9.6 -11.1 89 -14 -14 1011.5 1004.8
12 17.10 С 2 н/о н/о -9.7 -11.2 89 -14 -14 1011.5 1004.8 -12.3 -7.5
15 17.10 СВ 3 н/о н/о -9.1 -10.5 90 -15 -15 1010.6 1003.9
18 17.10 Ю 3 н/о н/о -7.4 -9.2 87 -13 -13 1010.1 1003.5 -12.3 -7.1
21 17.10 ЮВ 4 н/о н/о -7.4 -10.3 80 -14 -14 1009.3 1002.7
00 18.10 ЮВ 5 н/о н/о -7.6 -10.6 79 -15 -15 1008.9 1002.3 -10.4 -6.6
03 18.10 ЮВ 6 н/о н/о -6.5 -9.3 80 -14 -14 1007.8 1001.2
06 18.10 ЮВ 6 н/о н/о -6.1 -9.4 77 -14 -14 1007.8 1001.2 -10.4 -6.0 6
09 18.10 Ю 6 н/о н/о -4.7 -6.4 88 -12 -12 1007.1 1000.5
12 18.10 ЮВ 7 н/о {осадки} н/о -3.6 -5.7 85 -12 -12 1006.9 1000.3 -7.7 -6.0 0.2 <0.5
15 18.10 ЮВ 8 н/о н/о -2.6 -5.9 78 -11 -11 1007.7 1001.1
18 18.10 Ю 6 н/о н/о -3.1 -6.1 80 -10 -10 1009.0 1002.4 -7.8 -2.4
21 18.10 Ю 6 н/о н/о -2.9 -6.0 79 -10 -10 1009.8 1003.2
00 19.10 Ю 3 н/о н/о -4.5 -8.1 76 -9 -9 1011.6 1005.1 -6.2 -2.4
03 19.10 Ю 3 н/о н/о -5.9 -8.2 84 -12 -12 1012.0 1005.4
06 19.10 ЮЗ 2 н/о н/о -7.0 -9.2 84 -11 -11 1012.3 1005.7 -7.0 -2.4 16
09 19.10 З 1 н/о н/о -9.1 -10.5 90 -12 -12 1013.4 1006.8
12 19.10 З 1 н/о н/о -10.0 -11.5 89 -10 -10 1013.7 1007.1 -10.6 -2.4 <0.5
15 19.10 ЮЗ 1 н/о н/о -9.4 -10.8 90 -12 -12 1014.2 1007.5
18 19.10 Ю 2 н/о н/о -7.0 -8.4 90 -11 -11 1014.8 1008.1 -10.6 -6.7
21 19.10 Ю 4 н/о н/о -5.1 -10.2 67 -11 -11 1014.9 1008.2
00 20.10 Ю 6 н/о н/о -7.3 -11.0 75 -15 -15 1015.1 1008.4 -10.6 -5.0
03 20.10 Ю 6 н/о н/о -6.8 -8.8 86 -15 -15 1014.9 1008.2
06 20.10 ЮВ 6 н/о н/о -5.2 -7.2 86 -13 -13 1015.0 1008.5 -10.6 -5.0 4
09 20.10 ЮВ 7 н/о н/о -4.0 -6.5 83 -12 -12 1014.8 1008.2
12 20.10 ЮВ 9 н/о н/о -3.6 -5.9 84 -12 -12 1014.4 1007.8 -7.8 -5.0 <0.5
15 20.10 ЮВ 11 н/о н/о -3.0 -5.3 84 -12 -12 1014.0 1007.4
18 20.10 Ю 9 н/о н/о -1.5 -4.6 79 -10 -10 1013.6 1007.0 -7.8 -1.5
21 20.10 Ю 10 н/о н/о -1.0 -4.5 77 -9 -9 1013.5 1006.9
00 21.10 ЮВ 8 н/о н/о -1.3 -4.0 82 -9 -9 1014.0 1007.4 -5.2 -1.0
03 21.10 Ю 8 н/о н/о -1.1 -3.7 82 -9 -9 1013.4 1006.8
06 21.10 Ю 10 н/о н/о -0.9 -3.8 81 -9 -9 1014.2 1007.6 -5.2 -0.8 6

 

Местоположение метеостанции Baker Lake Climate (Канада): широта 64.32 долгота -96.00 высота над уровнем моря 51 м.

В архиве по умолчанию представлена погода в Baker Lake Climate за последнюю неделю. Архивные данные за месяц целиком и за предыдущие месяцы, начиная с января 2011 года, Вы можете получить, выбрав интересующий диапазон дат из раскрывающегося списка и нажав кнопку "Ввод!".

Внимание! Время в таблицах - всемирное. Для получения местного времени необходимо прибавить поправку, которая в Baker Lake Climate равна -6 ч.

Смотрите также архив погоды в соседних городах и на ближайших метеорологических станциях:

Погода в Baker Lake Airport (Канада) (4 км)
Погода в Back River MAPS (Канада) (197 км)
Погода в Rankin Inlet (Канада) (255 км)
Погода в Dubawnt Lake (Канада) (305 км)
Погода в Robertson Lake (Канада) (316 км)
Погода в Wager Bay (Канада) (353 км)
Погода в Arviat Climate (Канада) (372 км)
Погода в Arviat (Канада) (372 км)
Погода в Arviat Airport (Канада) (372 км)
Погода в Hanbury River ARS (Канада) (454 км)

Пояснения к столбцам:

Ветер - указаны скорость ветра в м/с - средняя за 10 мин, порывы в срок и между сроками (в фигурных скобках) и направление, откуда дует ветер: С - северный, СВ - северо-восточный, В - восточный, ЮВ - юго-восточный, Ю - южный, ЮЗ - юго-западный, З - западный, СЗ - северо-западный.
Видимость - горизонтальная дальность видимости в метрах или километрах. При видимости от 1 до 10 км при отсутствии осадков обычно наблюдается дымка, при ухудшении видимости до 1 км и менее - туман. В сухую погоду видимость может ухудшаться дымом, пылью или мглою.
Явления - указаны атмосферные явления, наблюдавшиеся в срок или в последний час перед сроком; фигурными скобками обозначены явления, наблюдавшиеся между сроками (за 1-3 часа до срока); квадратными скобками обозначены град или гололедные отложения с указанием их диаметра в мм.
Облачность - указаны через наклонную черту общая и нижняя облачность в баллах и высота нижней границы облаков в метрах; квадратными скобками обозначены формы облаков: Ci - перистые, Cs - перисто-слоистые, Cc - перисто-кучевые, Ac - высококучевые, As - высокослоистые, Sc - слоисто-кучевые, Ns - слоисто-дождевые, Cu - кучевые, Cb - кучево-дождевые. Подробнее классификацию облаков см. в Атласе облаков (PDF).
T - Температура воздуха - температура, измеренная на высоте 2 м над землей.
Td - Температура точки росы - температура, при понижении до которой содержащийся в воздухе водяной пар достигнет насыщения.
f - Относительная влажность воздуха - влажноcть воздуха, измеренная на высоте 2 м над землей.
Te - Эффективная температура - температура, которую ощущает одетый по сезону человек в тени. Характеристика душности погоды. При расчете учитывается влияние влажности воздуха и скорости ветра на теплоощущения человека.
Tes - Эффективная температура на солнце - температура, которую ощущает человек, с поправкой на солнечный нагрев. Характеристика знойности погоды. Зависит от высоты солнца над горизонтом, облачности и скорости ветра. Ночью, в пасмурную погоду, а также при ветре 12 м/с и более поправка равна нулю.
P - Атмосферное давление - приведенное к уровню моря атмосферное давление.
Po - Атмосферное давление - измеренное на уровне метеостанции атмосферное давление.
Tmin - Минимальная температура - минимум температуры воздуха на высоте 2 м над землей.
Tmax - Максимальная температура - максимум температуры воздуха на высоте 2 м над землей.
R - Количество осадков - Количество выпавших осадков за период времени, мм. При наведении курсора мыши на число - период времени, за который выпало указанное количество осадков.
R24 - Количество осадков - Количество выпавших осадков за 24 часа, мм.
S - Снежный покров - Высота снежного покрова, см. При наведении курсора мыши на число - состояние снежного покрова и степень покрытия местности в баллах.